CZ-6A DEB

Satellite information

Favourite Embed

Satellite Type and Status

DEBRISIN ORBIT

Key statistics

Satellite CZ-6A DEB at a glance.

Uptime

1080

Days in orbit

Revolutions

≈ 14.0

Per day

Orbit

SSO

Sun Synchronous Orbit

Inclination

98.8

Latest

Satellite identification and parameters

Extended collection of information and parameters for CZ-6A DEB.

Object identification

Identified? True

Debris? True

Object name: CZ-6A DEB

International designator: 2022-151AGG

Object number (NORAD): 56656

Object ID (CCSDS): 56656

Country: PEOPLES REPUBLIC OF CHINA (PRC)

Current information (Y/N): Y

RCS size: SMALL

Orbital parameters

Period: 102.956 minutes

Inclination: 98.8498 deg

SMA: 7276.608 km

Apoapsis: 990.267 km

Periapsis: 806.68 km

RAAN: 271.5467 deg

Eccentricy: 0.01261484

Argument of periapsis: 3.594 deg

Mean anomaly: 356.6101 deg

Mean motion: 13.98650701 rev/day

Mean motion (dot): 0.00002682 rev/day2

B* drag term: 0.0017719698 1/REarth

Two-line elements (TLE)

Creation date: Oct. 25, 2025, 3:11 a.m.

Reference frame: TEME

Reference center: EARTH

Epoch: Oct. 24, 2025, 9:07 p.m. UTC

TLE line 0: 0 CZ-6A DEB

TLE line 1: 1 56656U 22151AGG 25297.88041502 .00002682 00000-0 17720-2 0 9999

TLE line 2: 2 56656 98.8498 271.5467 0126148 3.5940 356.6101 13.98650701127519

Live tracking on map

Real-time ground track for satellite CZ-6A DEB.

In-orbit conjunctions

A list of the most updated potential collisions computed for object CZ-6A DEB.

Target Orbit TCA Probability of collision Miss distance Type
COSMOS 2315 LEO 2025-10-02 19:54:41 0.0001174903 324.0 (m) PAYLOAD
COSMOS 1697 LEO 2025-07-11 17:52:31 0.0002249894 248.0 (m) PAYLOAD
METEOR 2-21 LEO 2024-10-09 01:09:44 0.0003992808 656.0 (m) PAYLOAD

Associated space launch

Chinese satellite reported for atmospheric/ocean/environmental/spatial parameter research purposes, details TBD.

CZ-6A DEB was lifted into orbit during the mission ‘Long March 6A | Yunhai 3’, on board a Long March 6A space rocket.

The launch took place on Nov. 11, 2022, 10:52 p.m. from Launch Complex 9A.

For more information about the launch, click the button.

Launch to space Long March 6A | Yunhai 3
Long March 6A | Yunhai 3

Agency: N/A

Status: Launch Successful

Launch date: Nov. 11, 2022, 10:52 p.m. UTC

Rocket: Long March 6A

Launch pad: Launch Complex 9A

Location: Taiyuan Satellite Launch Center, People's Republic of China

...

Latest news about this satellite

There are no fresh news available about this satellite. Check back as we update our databases every day.


Newsletter sign-up

Weekly statistics, charts and insights to help you stay on top of the space industry.